Location: Mascot Post Office (historical)
(40.2645°N, 99.5462°W)
Time: 16:26:15
(UTC+00:00)

Cosmos 1315 Rocket - Pass Details

Date: 14 July 2020
Orbit: 530 x 568 km, 81.2° (Epoch: 04 August)

Event Time Altitude Azimuth Distance (km) Brightness Sun altitude
Rises 02:32:10 0° 4° (N) 2,769 6.8 -4.8°
Reaches altitude 10° 02:34:43 10° 19° (NNE) 1,871 5.7 -5.2°
Maximum altitude 02:38:03 23° 73° (ENE) 1,219 4.3 -5.7°
Drops below altitude 10° 02:41:23 10° 127° (SE) 1,863 4.8 -6.3°
Enters shadow 02:41:55 - 131° (SE) 2,041 5.0 -6.4°
